Total_Precipitation_Accumulation
1.80 1.81 2.52 3.51 4.07 3.60 3.22 2.63 2.11 1.77 1.46 1.16 0.92 0.89 1.34 1.83 2.34 2.72 2.60 2.38 1.84 1.55 1.63 2.33 2.94 2.62 2.26 2.08 2.16 2.33 2.21 2.20 2.05 1.99 1.84 1.70 1.44 1.32 1.25 1.13 1.07 1.08 0.99 0.91 1.00 1.19 1.16 1.16 1.20
1.68 2.43 3.36 4.32 3.98 3.20 3.04 2.49 2.09 1.65 1.12 0.89 0.71 0.71 0.94 0.98 0.94 1.42 2.49 2.55 1.75 1.42 1.48 1.99 2.93 2.59 2.42 2.31 2.35 2.31 2.24 2.29 2.11 1.95 1.81 1.65 1.48 1.46 1.42 1.48 1.48 1.33 1.12 1.01 1.03 1.24 1.16 1.08 1.17
1.85 3.09 4.25 4.27 3.16 2.78 2.98 2.40 1.76 1.25 0.85 0.82 0.78 0.68 0.84 1.12 1.16 1.83 2.55 2.17 1.60 1.36 1.49 2.28 2.97 2.63 2.46 2.43 2.40 2.28 2.35 2.39 2.21 1.95 1.73 1.53 1.57 1.79 1.81 1.71 1.60 1.38 1.16 1.04 1.02 1.14 1.15 1.08 1.07
2.28 3.51 3.71 3.26 2.85 2.42 2.20 1.95 1.47 1.40 1.05 0.75 0.73 0.79 0.75 1.09 1.29 1.76 1.96 1.72 1.57 1.57 1.59 2.30 2.96 2.76 2.53 2.45 2.38 2.30 2.35 2.46 2.38 2.05 1.76 1.61 1.64 1.72 1.72 1.66 1.55 1.33 1.18 1.02 1.07 1.16 1.14 1.14 1.09
2.73 3.37 3.35 2.94 2.73 2.35 1.74 1.55 1.37 1.54 1.38 0.92 0.75 1.00 1.16 1.50 1.63 1.69 1.73 1.73 1.48 1.52 1.58 2.02 2.69 2.64 2.45 2.36 2.33 2.43 2.44 2.42 2.42 2.18 1.88 1.78 1.74 1.68 1.72 1.64 1.54 1.27 1.14 1.03 1.13 1.18 1.15 1.09 1.10
3.01 3.04 3.26 3.10 2.89 2.48 1.96 1.62 1.45 1.46 1.30 0.97 0.91 1.13 1.46 1.96 1.99 1.92 1.68 1.72 1.66 1.52 1.49 1.73 2.32 2.53 2.43 2.44 2.36 2.42 2.47 2.43 2.33 2.00 1.84 1.72 1.73 1.74 1.71 1.67 1.58 1.35 1.27 1.20 1.14 1.10 1.10 1.08 1.10
2.88 2.90 2.85 2.60 2.81 2.98 2.33 1.58 1.59 1.46 1.38 1.15 0.90 1.23 1.53 2.11 1.92 1.91 1.83 1.78 1.85 1.73 1.71 1.79 2.06 2.29 2.65 2.73 2.57 2.55 2.56 2.45 2.27 1.93 1.82 1.71 1.65 1.57 1.56 1.56 1.46 1.34 1.32 1.23 1.12 1.03 1.00 1.05 1.08
2.27 2.37 2.28 2.34 2.71 2.88 2.08 1.32 1.19 1.37 1.38 0.95 0.82 1.16 1.53 1.83 1.74 1.87 1.97 1.97 1.86 1.80 1.76 1.67 1.80 1.95 2.23 2.45 2.68 2.71 2.62 2.49 2.32 1.98 1.85 1.76 1.66 1.54 1.48 1.33 1.33 1.30 1.31 1.36 1.22 1.12 1.09 1.09 1.16
2.10 2.44 2.55 2.70 2.57 2.37 1.62 1.34 1.16 1.06 1.11 0.93 0.82 0.94 1.32 1.39 1.51 1.82 2.07 2.06 1.82 1.66 1.57 1.48 1.54 1.69 1.91 2.16 2.40 2.63 2.54 2.45 2.27 1.96 1.87 1.84 1.63 1.40 1.35 1.23 1.47 1.39 1.37 1.41 1.38 1.38 1.34 1.20 1.15
2.18 2.56 2.56 2.19 1.72 1.61 1.39 1.24 1.15 1.09 1.19 1.15 1.04 1.08 1.39 1.56 1.61 1.79 1.86 1.77 1.60 1.62 1.47 1.32 1.36 1.50 1.63 1.76 2.26 2.34 2.03 1.90 1.74 1.87 1.80 1.72 1.67 1.49 1.11 1.20 1.49 1.61 1.57 1.41 1.36 1.45 1.24 0.96 0.84
1.74 1.96 1.71 1.68 1.32 1.14 1.18 1.13 1.01 1.20 1.38 1.11 1.12 1.20 1.50 1.70 1.63 1.67 1.63 1.51 1.45 1.41 1.32 1.23 1.23 1.22 1.22 1.37 1.70 1.94 1.97 1.90 1.69 1.60 1.55 1.56 1.47 1.26 1.06 1.15 1.21 1.18 1.14 1.03 1.05 1.01 0.84 0.77 0.83
1.52 1.43 1.21 1.33 1.17 1.15 1.18 1.06 1.01 1.07 1.15 0.88 0.95 1.14 1.45 1.65 1.65 1.57 1.45 1.39 1.31 1.22 1.20 1.14 1.05 1.02 0.98 1.05 1.12 1.24 1.50 1.59 1.55 1.35 1.20 1.24 1.31 1.22 1.05 1.06 1.04 1.01 1.00 1.10 1.10 1.07 0.98 0.94 0.93
1.68 1.49 1.27 1.20 1.15 1.11 1.09 1.05 0.98 0.94 0.87 0.86 0.94 1.23 1.53 1.79 1.90 1.84 1.52 1.25 1.15 1.16 1.15 1.07 0.93 0.92 0.93 0.99 1.03 0.98 1.20 1.38 1.42 1.35 1.17 1.10 1.13 1.16 1.10 0.97 0.98 0.92 0.92 0.99 1.03 1.04 1.09 1.16 1.11
1.54 1.41 1.37 1.33 1.19 1.03 1.07 1.03 0.96 1.10 0.95 0.94 0.96 1.12 1.27 1.47 1.56 1.50 1.46 1.22 1.05 1.02 1.10 1.03 0.97 1.00 0.97 0.91 0.94 0.95 1.00 1.11 1.12 1.23 1.20 1.12 1.06 1.05 1.07 1.04 1.06 1.05 1.01 0.99 0.98 0.97 1.11 1.15 1.18
1.21 1.44 1.48 1.38 1.22 1.10 1.02 1.23 1.12 1.17 1.06 1.07 1.06 1.06 1.16 1.25 1.31 1.19 1.08 0.96 0.95 0.93 0.92 0.87 0.87 0.94 0.93 0.92 0.92 0.94 1.05 1.08 1.10 1.12 1.07 1.13 1.05 1.02 1.05 1.06 1.08 1.07 1.08 1.05 1.06 1.09 1.17 1.21 1.29
1.31 1.62 1.86 1.51 1.29 1.24 1.28 1.49 1.30 1.26 1.20 1.12 1.05 1.05 1.08 1.16 1.27 1.24 1.12 0.91 0.85 0.82 0.81 0.81 0.72 0.82 0.94 1.02 1.06 1.15 1.20 1.21 1.25 1.15 1.06 1.05 1.00 0.99 1.10 1.11 1.13 1.19 1.11 1.09 1.19 1.25 1.34 1.38 1.43
1.59 1.62 1.59 1.52 1.25 1.24 1.30 1.34 1.23 1.30 1.24 1.08 0.97 0.95 0.90 0.97 1.02 1.03 1.04 0.94 0.86 0.81 0.83 0.86 0.81 0.86 0.97 1.03 1.16 1.26 1.33 1.40 1.49 1.40 1.35 1.30 1.18 1.16 1.28 1.34 1.34 1.35 1.36 1.30 1.22 1.26 1.38 1.52 1.52
1.47 1.19 1.18 1.26 1.15 1.08 1.14 1.06 1.08 1.21 1.19 1.07 0.90 0.83 0.77 0.81 0.83 0.81 0.87 0.89 0.90 0.87 0.88 0.93 1.00 1.03 1.15 1.30 1.51 1.72 1.83 1.97 2.08 1.98 1.86 1.67 1.45 1.39 1.56 1.61 1.50 1.53 1.65 1.71 1.53 1.58 1.50 1.47 1.56
0.89 0.88 0.94 0.89 0.79 0.87 0.87 0.89 0.93 0.94 0.98 0.90 0.74 0.69 0.71 0.71 0.73 0.74 0.77 0.82 0.86 0.87 0.87 0.87 0.92 1.02 1.13 1.35 1.66 2.17 2.43 2.52 2.40 2.34 2.23 2.00 1.75 1.73 1.93 1.98 1.95 1.94 1.96 1.93 1.85 2.01 1.93 1.64 1.58
0.75 0.84 0.85 0.80 0.70 0.73 0.70 0.72 0.72 0.70 0.65 0.61 0.56 0.52 0.57 0.61 0.72 0.71 0.68 0.69 0.73 0.73 0.76 0.91 0.94 0.99 1.09 1.37 1.68 2.06 2.49 2.55 2.50 2.40 2.29 2.17 2.02 1.96 2.00 2.24 2.37 2.34 2.51 2.52 2.29 2.42 2.45 2.05 1.80
0.72 0.78 0.78 0.84 0.79 0.71 0.68 0.75 0.73 0.64 0.53 0.47 0.44 0.43 0.47 0.48 0.57 0.64 0.67 0.67 0.68 0.64 0.61 0.73 0.89 1.06 1.33 1.64 1.94 2.13 2.44 2.54 2.54 2.42 2.35 2.35 2.28 2.15 2.19 2.30 2.47 2.48 2.57 2.75 2.80 2.71 2.83 2.64 2.22
0.77 0.54 0.49 0.59 0.87 0.94 0.71 0.88 0.71 0.57 0.59 0.52 0.46 0.42 0.43 0.47 0.49 0.55 0.62 0.63 0.59 0.55 0.52 0.60 0.76 1.04 1.43 1.80 2.03 2.27 2.64 2.73 2.60 2.54 2.46 2.42 2.42 2.40 2.48 2.49 2.57 2.60 2.61 2.72 2.84 2.78 2.94 3.07 2.68
0.55 0.45 0.45 0.52 0.72 0.79 0.61 0.64 0.64 0.56 0.61 0.59 0.52 0.49 0.44 0.43 0.41 0.46 0.50 0.51 0.52 0.56 0.57 0.63 0.82 1.11 1.44 1.69 1.96 2.30 2.50 2.62 2.69 2.59 2.55 2.51 2.51 2.53 2.57 2.62 2.75 2.75 2.73 2.68 2.89 2.96 3.06 3.01 2.95
0.39 0.50 0.58 0.59 0.72 0.77 0.44 0.52 0.65 0.56 0.45 0.46 0.48 0.46 0.42 0.39 0.38 0.45 0.51 0.53 0.57 0.60 0.67 0.79 0.97 1.15 1.42 1.66 1.93 2.11 2.29 2.44 2.53 2.57 2.52 2.48 2.49 2.58 2.46 2.38 2.54 2.61 2.65 2.62 2.79 2.93 3.06 3.06 3.09
0.42 0.74 1.01 0.99 0.99 0.76 0.36 0.49 0.64 0.46 0.35 0.36 0.40 0.42 0.41 0.43 0.48 0.56 0.63 0.72 0.81 0.84 0.88 0.99 1.12 1.30 1.44 1.54 1.70 1.82 1.96 2.10 2.10 2.23 2.29 2.41 2.39 2.41 2.41 2.32 2.33 2.37 2.34 2.33 2.43 2.48 2.55 2.72 2.91
0.37 0.58 0.95 1.02 0.86 0.66 0.50 0.70 0.68 0.44 0.37 0.38 0.39 0.44 0.47 0.56 0.65 0.79 0.90 1.04 1.11 1.12 1.16 1.23 1.31 1.37 1.40 1.43 1.50 1.62 1.75 1.83 1.82 1.80 1.80 1.94 2.09 2.12 2.17 2.18 2.15 2.20 2.24 2.20 2.30 2.32 2.31 2.34 2.40
0.38 0.46 0.50 0.65 0.57 0.59 0.60 0.72 0.66 0.47 0.44 0.45 0.47 0.52 0.62 0.81 0.92 1.06 1.20 1.28 1.26 1.25 1.25 1.30 1.35 1.37 1.35 1.36 1.39 1.35 1.43 1.51 1.55 1.53 1.59 1.60 1.65 1.67 1.73 1.79 1.91 2.04 2.10 2.12 2.23 2.33 2.30 2.21 2.18
0.33 0.47 0.63 0.90 1.00 0.88 0.72 0.84 0.83 0.64 0.53 0.50 0.57 0.69 0.86 1.12 1.27 1.44 1.60 1.55 1.48 1.48 1.54 1.45 1.36 1.33 1.32 1.32 1.37 1.30 1.34 1.38 1.37 1.31 1.37 1.34 1.30 1.31 1.36 1.46 1.66 1.95 2.08 2.10 2.17 2.24 2.28 2.28 2.21
0.37 0.50 0.67 0.96 1.05 1.22 1.26 1.29 0.98 0.79 0.72 0.80 0.94 1.05 1.25 1.50 1.65 1.75 1.85 1.82 1.64 1.53 1.52 1.45 1.33 1.24 1.19 1.19 1.30 1.32 1.29 1.31 1.33 1.27 1.21 1.20 1.19 1.19 1.26 1.32 1.48 1.66 1.87 2.07 2.22 2.22 2.19 2.19 2.16
0.46 0.64 0.85 1.33 1.31 1.16 1.36 1.48 1.07 0.87 0.88 0.91 0.99 1.17 1.38 1.49 1.57 1.60 1.60 1.66 1.57 1.48 1.39 1.36 1.26 1.11 1.09 1.12 1.17 1.27 1.25 1.21 1.26 1.23 1.27 1.18 1.09 1.08 1.11 1.26 1.48 1.59 1.67 1.74 1.84 1.89 1.92 1.96 2.03